Wetbulb
53.48 53.09 52.49 50.52 49.29 49.18 48.59 48.90 49.14 48.70 49.36 47.89 47.88 48.01 47.57 46.76 46.98 45.79 45.76 45.99 45.97 46.43 47.44 47.57 47.76 48.96 49.62 49.95 50.95 53.01 54.46 55.41 55.77 56.98 61.77 65.99 65.07 65.54 64.28 64.44 64.01 62.18 59.92
52.03 50.97 49.53 48.16 48.27 47.78 48.07 48.68 48.40 48.66 48.56 48.42 47.56 46.57 46.43 46.54 46.27 46.02 45.88 46.30 46.00 45.91 46.89 47.82 47.72 49.24 49.49 50.78 51.61 52.00 51.92 55.85 56.35 55.47 57.44 64.17 62.05 60.74 60.81 58.54 58.10 58.70 57.55
49.14 47.46 46.78 46.77 46.64 47.11 47.73 45.58 48.73 49.25 48.30 47.91 46.69 45.79 45.67 45.46 45.60 46.02 46.43 46.64 46.57 46.84 47.37 47.87 48.26 49.52 49.70 51.23 52.29 52.61 53.60 55.56 57.95 57.95 60.21 63.26 59.55 57.57 55.11 55.25 55.21 54.99 56.36
46.07 45.65 45.88 46.14 46.07 45.36 45.50 48.34 47.89 48.88 47.31 45.99 45.60 45.16 45.51 45.60 45.43 46.28 46.89 48.48 47.34 47.94 48.12 49.25 49.63 49.84 50.32 51.39 52.79 53.45 55.40 57.03 58.90 59.03 61.34 58.79 58.52 55.71 54.95 52.30 51.41 53.68 53.48
44.95 44.84 45.67 45.18 43.93 44.85 47.53 47.81 47.96 47.31 46.53 45.14 44.90 45.45 45.24 45.71 46.02 46.20 48.70 49.01 48.45 48.66 50.56 50.43 50.50 51.40 52.42 52.96 53.47 54.54 55.81 57.88 59.63 60.10 60.25 56.85 54.35 52.17 51.97 52.92 51.03 50.94 51.54
44.60 45.29 44.60 44.38 46.99 47.89 46.88 46.42 45.92 45.07 45.10 45.20 44.95 44.59 44.38 46.06 44.97 46.40 48.59 48.15 48.47 48.08 48.51 50.02 51.78 52.19 53.20 53.82 53.79 54.30 53.19 53.45 56.20 55.50 59.40 57.61 54.22 53.36 52.32 50.50 49.94 48.55 47.79
46.42 45.66 45.89 47.33 47.16 47.29 46.78 45.92 44.43 43.91 44.33 44.09 44.21 44.07 43.86 45.80 44.16 44.89 47.64 48.08 47.48 47.45 47.68 48.13 48.53 49.60 50.36 51.94 50.64 50.84 50.49 50.46 51.76 58.61 52.86 51.62 50.91 51.37 50.63 49.67 49.57 49.29 48.37
46.63 46.37 46.74 47.49 47.94 48.84 49.86 46.85 45.79 44.97 44.44 43.93 44.22 44.25 44.50 45.42 43.87 44.24 46.66 48.78 48.50 47.54 47.25 48.25 47.95 47.72 47.73 48.60 48.35 47.89 48.16 48.28 50.27 51.28 51.00 50.34 51.39 52.01 51.84 51.39 51.06 51.40 52.55
46.26 47.11 48.55 48.41 47.88 48.29 48.10 48.02 46.60 46.46 45.39 45.28 45.01 44.76 45.03 45.10 43.19 43.54 46.42 47.61 47.02 47.82 47.96 46.85 48.17 47.98 45.09 45.80 47.90 47.10 46.96 47.21 47.87 47.34 46.84 46.26 45.90 46.66 50.43 51.73 48.08 48.86 49.29
47.92 48.18 48.52 48.90 48.31 47.77 48.26 48.35 49.19 50.20 49.65 48.82 46.93 47.03 47.03 46.25 42.77 42.64 45.45 47.37 46.98 46.36 47.49 48.10 45.59 44.79 43.29 43.70 50.78 49.89 48.46 49.39 50.85 51.86 51.39 50.34 50.85 49.20 49.08 53.58 51.45 48.71 50.67
48.57 48.90 49.11 49.09 48.39 48.11 48.68 48.52 48.19 49.09 48.63 49.68 49.84 49.21 49.01 46.03 46.25 42.28 42.45 47.64 47.21 47.25 46.80 46.33 47.90 43.42 42.34 42.81 45.39 51.24 49.55 52.05 50.89 51.65 51.80 51.68 52.28 52.31 52.29 52.97 54.76 52.46 49.59
48.58 48.56 48.72 49.00 47.87 47.42 48.21 47.40 46.73 46.46 47.10 48.16 49.05 49.23 48.39 47.84 44.35 43.57 42.08 42.86 46.30 48.77 48.49 49.09 47.46 41.69 42.26 42.53 47.57 42.41 43.72 48.46 51.10 50.98 49.73 49.97 50.14 50.26 51.50 52.62 53.86 53.20 53.07
47.70 47.54 48.89 49.01 48.46 49.16 47.15 45.63 43.20 44.55 43.67 44.22 45.63 45.43 46.45 46.99 46.77 43.59 43.29 43.30 44.77 48.94 49.47 46.16 42.83 42.57 43.64 46.95 44.02 44.40 46.77 51.24 50.60 49.13 48.69 49.19 50.44 51.49 52.60 52.36 53.23 52.49 52.51
47.31 48.52 48.83 48.62 48.16 49.05 47.06 44.87 43.65 42.69 42.46 42.27 43.25 43.00 43.66 44.38 44.64 45.26 47.23 49.47 46.64 48.10 47.12 49.46 46.95 45.78 43.99 46.44 48.24 48.79 49.98 50.20 49.56 49.00 49.21 49.98 51.08 51.23 49.07 50.34 49.75 50.23 47.88
47.92 48.34 47.15 47.78 47.75 47.19 46.49 44.41 44.16 42.55 40.90 41.86 42.08 44.21 42.44 42.19 42.48 39.47 40.55 45.24 47.32 46.36 47.90 48.80 46.81 46.51 46.46 47.04 48.10 48.48 48.36 48.83 47.93 48.40 48.21 47.73 47.69 48.23 47.85 48.48 47.80 48.21 46.13
47.43 46.91 46.08 46.52 46.23 45.59 45.10 44.54 37.28 38.40 37.25 36.82 36.81 39.17 44.55 39.28 38.01 38.28 38.33 38.46 38.94 39.89 45.58 44.59 44.46 44.67 44.53 44.91 45.03 45.43 46.21 45.58 45.93 46.46 46.46 46.37 45.72 45.72 45.51 46.26 46.10 44.89 43.80
47.79 46.51 46.83 45.77 46.05 45.54 44.72 44.26 44.51 39.61 38.29 37.58 37.33 37.70 37.89 36.86 37.77 38.04 38.35 39.31 39.00 41.94 43.58 43.03 42.36 42.43 42.41 42.86 43.16 43.39 43.41 44.64 45.24 44.70 44.90 44.49 44.65 45.13 44.61 44.20 43.80 43.30 42.78
47.63 42.36 46.87 46.72 45.92 45.55 44.83 44.36 44.93 45.01 44.85 45.53 40.90 40.82 38.79 37.81 38.03 38.03 38.06 42.07 43.73 42.52 42.24 40.67 40.61 41.07 41.22 41.44 42.04 42.31 42.93 43.25 43.06 43.33 43.45 43.55 43.37 43.10 43.03 43.21 42.79 41.98 42.32
46.43 45.65 46.55 47.19 46.14 44.87 44.55 44.09 44.43 45.11 45.56 45.61 46.21 44.25 41.68 38.55 38.79 38.61 39.36 43.35 41.78 41.30 40.83 40.78 40.52 40.38 40.46 40.70 40.72 41.34 41.48 41.13 41.35 41.78 41.43 41.81 41.97 41.93 42.34 43.52 42.84 37.42 38.59
47.79 41.38 44.16 46.28 45.37 44.99 43.99 43.38 43.52 44.52 45.31 45.90 44.59 44.81 45.85 44.13 43.46 43.88 43.59 42.62 41.52 40.40 39.45 38.97 39.33 39.61 39.38 39.37 39.56 39.52 39.61 39.80 39.96 39.93 39.80 40.50 41.08 41.77 41.58 42.42 43.21 41.99 41.05
47.32 47.33 37.93 45.66 44.80 43.61 43.60 43.44 43.75 43.62 43.64 44.93 45.96 43.66 32.87 43.82 43.55 43.36 42.86 41.93 40.22 39.10 38.76 38.79 39.05 39.10 39.12 39.04 38.80 38.69 38.37 38.67 39.01 39.06 38.82 39.31 39.96 39.89 40.88 42.18 43.29 41.54 41.36
46.92 46.36 45.12 45.18 45.19 44.38 43.84 43.63 43.77 43.81 43.88 43.37 44.48 44.67 35.50 44.83 43.34 42.47 42.01 40.86 40.09 40.21 41.01 40.86 40.48 40.28 39.44 38.56 38.00 37.68 37.38 37.62 37.93 38.22 38.84 39.42 39.47 39.77 40.28 40.95 42.29 41.07 42.47
46.98 45.92 45.45 44.87 45.36 40.76 44.06 43.87 43.38 43.85 44.62 44.54 44.62 45.69 45.65 43.17 42.41 42.36 42.14 42.41 43.03 42.77 42.63 41.71 40.93 39.70 39.25 38.99 38.47 37.75 37.24 36.65 37.23 38.05 38.28 38.81 39.00 39.61 39.58 40.37 40.51 40.87 41.28
47.21 46.15 45.37 45.09 44.14 44.40 43.48 43.50 44.45 41.08 44.78 45.19 44.81 46.31 44.26 42.56 42.72 42.99 43.37 42.98 42.84 42.91 42.60 41.89 40.38 39.31 38.59 38.39 37.71 37.31 37.75 36.08 36.48 38.89 38.83 39.26 38.92 38.97 39.45 40.86 40.75 41.20 41.84
47.13 45.85 45.21 44.70 43.95 43.62 43.64 43.87 45.41 45.48 45.15 44.92 45.40 45.54 43.29 43.04 42.71 42.88 43.02 42.93 43.15 43.04 42.14 40.74 40.08 39.81 38.48 37.49 36.83 36.13 34.69 32.22 34.68 33.87 40.17 39.96 39.38 39.37 40.38 40.98 40.98 41.78 43.26
46.22 45.69 44.84 44.29 43.67 43.12 42.89 44.55 45.09 44.91 44.59 45.05 46.11 43.95 43.30 42.67 42.95 42.35 42.73 42.90 42.70 42.29 41.34 40.67 39.99 39.34 37.98 36.50 35.28 32.77 32.70 32.25 34.30 32.73 39.59 40.56 40.30 40.44 40.99 41.79 42.98 42.22 43.52
MSLP
1017.30 1017.32 1017.25 1017.35 1017.32 1017.00 1016.59 1016.04 1015.43 1015.00 1014.23 1013.72 1013.03 1012.21 1011.48 1010.75 1010.15 1009.50 1008.84 1008.22 1007.64 1007.21 1006.95 1006.83 1006.60 1006.47 1006.16 1005.96 1005.76 1005.28 1004.42 1003.73 1002.99 1001.57 1001.74 1001.22 1000.96 1000.83 1001.25 1001.22 1001.38 1002.00 1002.62
1017.90 1017.98 1018.01 1017.90 1017.48 1017.06 1016.56 1015.81 1015.42 1014.62 1013.95 1013.23 1012.58 1011.84 1011.00 1010.19 1009.50 1008.73 1007.84 1007.12 1006.63 1006.26 1006.03 1005.88 1005.72 1005.65 1005.49 1005.30 1005.08 1004.66 1004.28 1003.48 1002.90 1002.11 1002.01 1001.62 1001.71 1002.27 1002.48 1002.73 1002.91 1003.13 1003.58
1018.79 1018.76 1018.44 1018.10 1017.66 1017.04 1016.49 1016.25 1015.16 1014.37 1013.69 1013.02 1012.40 1011.55 1010.66 1009.85 1008.96 1008.01 1007.03 1005.99 1005.57 1005.47 1005.24 1005.14 1005.03 1004.99 1004.81 1004.60 1004.40 1004.14 1003.81 1003.22 1002.45 1002.10 1001.80 1001.84 1002.34 1002.97 1003.35 1003.61 1003.86 1004.14 1004.42
1019.49 1019.14 1018.64 1018.25 1017.89 1017.43 1016.76 1015.77 1015.12 1014.36 1013.85 1013.16 1012.34 1011.50 1010.51 1009.54 1008.56 1007.50 1006.22 1004.99 1004.69 1004.74 1004.57 1004.40 1004.43 1004.35 1004.24 1004.08 1003.84 1003.59 1003.29 1002.76 1001.77 1001.21 1001.62 1002.13 1002.34 1003.30 1003.65 1004.14 1004.60 1004.87 1005.22
1019.81 1019.49 1018.91 1018.69 1018.27 1017.48 1016.49 1015.88 1015.27 1014.70 1014.03 1013.29 1012.38 1011.36 1010.39 1009.36 1008.41 1007.27 1005.90 1005.09 1004.72 1004.41 1003.96 1003.87 1003.79 1003.73 1003.65 1003.52 1003.45 1003.09 1002.78 1002.34 1001.66 1001.30 1001.33 1002.36 1002.85 1003.54 1003.96 1004.45 1004.87 1005.34 1005.88
1020.04 1019.49 1019.29 1018.70 1017.76 1017.12 1016.64 1016.15 1015.56 1014.92 1014.15 1013.27 1012.38 1011.43 1010.40 1009.40 1008.58 1007.40 1006.38 1005.60 1005.04 1004.51 1004.06 1003.78 1003.48 1003.38 1003.03 1002.76 1002.88 1003.06 1003.16 1002.96 1002.38 1002.14 1001.76 1002.17 1002.94 1003.21 1003.94 1004.41 1004.86 1005.32 1005.95
1019.80 1019.47 1018.86 1018.07 1017.57 1016.97 1016.49 1016.07 1015.58 1015.05 1014.38 1013.54 1012.65 1011.72 1010.76 1009.80 1008.88 1007.88 1006.98 1006.27 1005.78 1005.23 1004.75 1004.35 1004.01 1003.76 1003.38 1002.91 1003.05 1003.33 1003.43 1003.13 1002.70 1002.17 1002.53 1002.88 1003.30 1003.62 1004.00 1004.50 1004.96 1005.16 1005.47
1019.56 1018.99 1018.52 1017.84 1017.09 1016.37 1015.52 1015.63 1015.33 1015.03 1014.49 1013.94 1012.96 1012.11 1011.27 1010.36 1009.43 1008.52 1007.68 1007.03 1006.50 1006.12 1005.72 1005.28 1004.88 1004.61 1004.36 1003.98 1003.86 1003.80 1003.90 1003.67 1003.34 1003.16 1003.26 1003.48 1003.73 1004.10 1004.24 1004.51 1004.92 1005.37 1005.76
1019.28 1018.46 1017.87 1017.44 1016.76 1016.26 1015.65 1015.37 1015.06 1014.71 1014.28 1013.96 1013.23 1012.48 1011.78 1010.96 1010.04 1009.31 1008.50 1008.02 1007.57 1007.07 1006.73 1006.47 1005.91 1005.66 1005.45 1005.14 1004.75 1004.76 1004.83 1004.84 1004.84 1004.40 1004.25 1004.40 1004.51 1004.78 1004.72 1005.11 1005.34 1005.13 1005.52
1018.94 1018.16 1017.69 1017.25 1016.74 1016.41 1015.90 1015.40 1014.93 1013.98 1013.61 1013.38 1012.97 1012.42 1012.02 1011.49 1010.78 1010.04 1009.44 1008.91 1008.38 1007.99 1007.60 1007.23 1007.00 1006.62 1006.18 1005.87 1005.60 1005.50 1005.32 1005.22 1005.02 1005.16 1005.21 1005.18 1005.03 1005.08 1005.02 1004.92 1004.94 1004.88 1004.82
1018.87 1018.24 1017.82 1017.43 1016.99 1016.69 1016.10 1015.71 1015.01 1014.10 1013.40 1012.95 1012.51 1012.31 1011.80 1011.76 1011.31 1010.78 1010.13 1009.70 1009.25 1008.79 1008.37 1008.02 1007.79 1007.21 1006.80 1006.51 1006.12 1005.91 1005.72 1005.21 1005.23 1004.96 1004.87 1004.86 1005.02 1004.95 1005.01 1004.91 1004.88 1004.71 1005.10
1019.24 1018.46 1017.84 1017.49 1017.28 1016.81 1016.14 1015.83 1015.41 1014.76 1013.72 1013.10 1012.45 1011.83 1011.63 1012.06 1011.64 1011.22 1010.62 1010.11 1009.52 1008.88 1008.48 1008.30 1008.26 1007.74 1007.28 1006.94 1006.50 1006.32 1005.83 1005.34 1005.23 1005.06 1005.21 1005.18 1005.28 1005.46 1005.43 1005.49 1005.61 1005.72 1005.86
1019.25 1018.37 1017.60 1017.22 1016.94 1016.60 1016.34 1016.12 1015.96 1015.42 1014.62 1013.98 1013.09 1012.82 1012.35 1012.39 1012.32 1011.72 1010.82 1010.32 1009.82 1009.35 1009.02 1008.90 1008.79 1008.30 1007.87 1007.57 1007.44 1006.89 1006.31 1006.03 1005.84 1005.74 1005.80 1005.73 1005.70 1005.85 1005.74 1005.82 1006.00 1006.18 1006.31
1018.92 1018.16 1017.63 1016.90 1016.68 1016.38 1016.51 1016.53 1016.74 1016.55 1015.99 1015.51 1014.69 1014.14 1013.74 1013.46 1013.28 1012.96 1011.93 1010.66 1009.93 1009.61 1009.52 1008.98 1008.74 1008.56 1008.46 1008.20 1007.99 1007.61 1007.29 1006.90 1006.66 1006.54 1006.42 1006.29 1006.18 1006.12 1006.16 1006.12 1006.03 1006.11 1006.51
1018.89 1018.30 1017.96 1017.06 1016.82 1016.44 1016.99 1017.26 1016.91 1017.86 1017.46 1016.80 1016.34 1015.22 1015.10 1014.70 1014.65 1014.18 1013.52 1012.34 1011.35 1010.36 1009.71 1009.84 1009.75 1009.54 1009.25 1008.97 1008.69 1008.43 1008.28 1008.05 1007.75 1007.56 1007.36 1007.19 1007.01 1006.78 1006.73 1006.97 1006.78 1006.59 1006.63
1018.99 1018.62 1018.02 1017.38 1016.95 1016.79 1016.61 1017.30 1017.95 1017.94 1017.92 1017.38 1017.11 1016.70 1015.72 1015.90 1015.17 1014.30 1013.57 1013.10 1012.25 1011.68 1011.33 1011.11 1010.87 1010.66 1010.39 1010.10 1009.80 1009.49 1009.31 1009.28 1009.07 1008.66 1008.39 1008.13 1007.86 1007.70 1007.63 1007.46 1007.49 1007.48 1007.47
1019.29 1019.09 1018.23 1017.61 1017.24 1016.83 1016.82 1016.68 1016.54 1017.93 1017.78 1017.39 1016.80 1016.81 1016.68 1016.26 1015.59 1014.89 1014.27 1013.71 1013.37 1012.60 1012.52 1012.46 1012.32 1012.12 1011.85 1011.50 1011.13 1010.76 1010.38 1010.10 1010.02 1009.62 1009.30 1009.09 1008.77 1008.37 1008.11 1008.10 1008.16 1008.12 1008.20
1019.57 1019.29 1018.46 1017.86 1017.56 1017.14 1016.97 1016.80 1016.60 1016.50 1016.27 1016.28 1016.41 1016.56 1016.79 1016.41 1016.15 1015.62 1014.94 1014.18 1013.93 1013.90 1013.85 1013.81 1013.60 1013.33 1012.96 1012.54 1012.14 1011.68 1011.28 1010.95 1010.72 1010.42 1010.11 1009.78 1009.53 1009.22 1008.84 1008.63 1008.76 1008.84 1008.72
1019.84 1019.49 1018.88 1018.00 1017.72 1017.56 1017.23 1016.97 1016.75 1016.50 1016.22 1016.20 1016.27 1016.16 1016.50 1016.35 1016.18 1015.89 1015.51 1015.10 1014.97 1014.89 1014.90 1014.70 1014.55 1014.27 1013.86 1013.48 1013.07 1012.57 1012.11 1011.80 1011.46 1011.14 1010.91 1010.56 1010.24 1009.91 1009.44 1009.10 1009.10 1009.31 1009.29
1019.58 1019.69 1019.02 1018.28 1018.01 1017.59 1017.43 1017.30 1017.18 1016.76 1016.35 1016.22 1016.81 1016.86 1016.82 1016.42 1016.18 1015.94 1015.97 1016.00 1015.92 1015.95 1015.91 1015.68 1015.37 1015.05 1014.72 1014.34 1013.91 1013.47 1012.97 1012.50 1012.12 1011.90 1011.66 1011.28 1010.82 1010.38 1010.04 1009.70 1009.45 1009.53 1009.72
1019.58 1019.21 1019.25 1018.73 1018.36 1018.24 1017.83 1017.61 1017.45 1017.32 1016.96 1016.58 1016.50 1017.31 1017.54 1017.10 1016.82 1016.65 1016.59 1016.72 1016.82 1016.72 1016.56 1016.28 1015.86 1015.53 1015.18 1014.82 1014.39 1013.98 1013.57 1013.12 1012.72 1012.44 1012.12 1011.63 1011.23 1010.87 1010.64 1010.30 1009.92 1010.14 1010.08
1019.75 1019.52 1019.68 1019.19 1018.64 1018.51 1018.40 1018.18 1017.88 1017.49 1017.32 1017.17 1016.94 1017.04 1017.33 1017.50 1017.56 1017.48 1017.42 1017.48 1017.40 1017.10 1016.72 1016.30 1015.92 1015.60 1015.40 1015.09 1014.72 1014.32 1013.91 1013.51 1013.17 1012.80 1012.34 1011.91 1011.59 1011.28 1011.04 1010.81 1010.40 1010.50 1010.25
1020.01 1019.92 1019.60 1019.47 1018.93 1019.10 1018.78 1018.51 1018.40 1018.15 1017.70 1017.60 1017.43 1017.20 1017.75 1018.27 1018.29 1018.12 1017.83 1017.54 1017.21 1016.78 1016.34 1016.19 1016.07 1015.92 1015.60 1015.25 1014.96 1014.64 1014.15 1013.80 1013.46 1013.04 1012.56 1012.12 1011.81 1011.50 1011.42 1011.14 1010.93 1010.79 1010.67
1020.45 1020.30 1020.06 1019.70 1019.73 1019.27 1019.32 1018.97 1018.70 1018.52 1018.41 1018.15 1018.03 1017.81 1018.70 1018.96 1018.80 1018.42 1018.00 1017.69 1017.20 1016.68 1016.42 1016.33 1016.49 1016.17 1015.89 1015.43 1015.12 1014.74 1014.27 1014.04 1013.62 1012.96 1012.63 1012.16 1011.93 1011.86 1011.68 1011.39 1011.29 1011.00 1010.92
1020.81 1020.76 1020.45 1020.29 1020.12 1019.87 1019.62 1019.53 1019.29 1019.11 1018.98 1018.82 1018.60 1019.03 1019.61 1019.50 1019.24 1018.81 1018.42 1018.03 1017.39 1016.95 1016.70 1016.87 1016.66 1016.18 1015.96 1015.63 1015.24 1014.86 1014.41 1014.00 1013.54 1013.15 1012.48 1012.34 1012.18 1012.04 1011.77 1011.63 1011.54 1011.29 1011.09
1021.46 1021.36 1021.16 1020.96 1020.71 1020.49 1020.37 1020.14 1020.02 1019.88 1019.68 1019.63 1019.66 1020.17 1020.20 1019.94 1019.57 1019.28 1018.76 1018.22 1017.66 1017.25 1017.17 1017.10 1016.94 1016.54 1016.18 1015.82 1015.42 1014.93 1014.35 1013.86 1013.41 1013.08 1012.62 1012.40 1012.25 1012.14 1012.01 1011.78 1011.54 1011.66 1011.48
Wind_Speed
14 15 15 14 14 13 12 12 13 14 15 15 15 16 16 15 15 14 14 15 15 13 11 11 12 11 8 8 8 9 12 11 12 13 9 10 1 3 6 8 5 7 6
14 15 14 13 14 14 13 15 15 14 14 15 15 15 15 15 15 15 15 14 14 13 12 11 12 8 10 10 9 10 10 13 12 12 10 7 4 6 5 7 6 6 7
15 14 14 13 13 14 15 14 15 14 16 15 14 15 15 15 15 15 15 16 13 11 11 10 10 10 9 8 9 9 9 12 12 10 10 3 3 2 5 6 6 8 6
13 13 13 13 14 14 13 14 14 14 15 15 14 14 14 14 14 14 15 12 6 9 10 9 9 9 9 8 8 9 11 11 12 10 7 3 3 4 3 4 5 5 5
11 12 12 12 12 12 12 14 13 14 13 13 14 13 14 12 10 14 12 8 6 7 6 7 8 11 16 13 7 7 8 8 8 8 4 3 3 2 2 3 4 5 4
10 10 11 12 12 11 12 12 12 13 13 13 14 14 15 9 22 21 16 9 10 9 7 6 5 7 5 15 16 10 7 7 9 5 4 5 3 5 5 6 6 5 3
9 11 11 11 9 9 8 8 10 11 12 13 14 14 14 13 22 20 18 9 8 9 9 7 6 6 9 10 14 12 11 11 9 4 4 3 4 3 6 7 3 2 2
9 10 11 9 9 13 11 4 9 8 9 10 13 14 14 12 20 20 17 11 10 12 12 11 10 11 12 10 11 12 11 11 10 8 9 8 7 5 5 5 5 3 2
11 10 10 9 11 12 14 8 9 5 7 8 10 11 11 13 19 20 14 11 11 13 12 13 11 11 13 13 12 12 11 11 11 13 14 12 11 9 6 5 1 4 2
11 11 11 11 12 13 14 13 12 9 7 3 6 7 7 9 16 16 13 8 11 9 10 10 16 11 14 10 10 8 8 8 9 11 7 6 6 4 7 3 3 3 4
11 11 10 11 12 12 11 10 11 12 11 10 7 3 7 10 13 13 11 6 5 6 6 6 6 11 11 10 10 7 3 6 6 7 8 7 5 7 5 6 10 6 6
12 12 10 11 9 10 12 11 13 13 11 10 11 6 10 13 13 13 10 7 8 6 3 5 5 8 14 16 11 8 6 4 7 4 6 5 7 6 5 6 7 8 7
9 10 10 8 7 7 11 12 11 12 12 12 10 11 11 11 13 20 14 7 6 4 7 7 1 6 8 10 15 15 11 7 6 7 7 6 6 5 4 3 4 6 5
9 10 11 9 10 8 8 9 10 12 11 11 11 11 11 11 12 12 13 11 5 4 8 6 7 8 11 10 9 8 7 8 8 7 7 6 5 4 5 5 3 2 3
10 10 11 9 9 9 7 7 8 8 9 10 11 9 10 11 12 13 11 12 11 12 7 11 9 8 8 8 8 9 9 9 9 8 8 7 6 6 6 6 5 4 3
10 9 8 8 8 8 8 6 7 6 6 3 2 8 9 12 16 18 14 14 20 16 9 8 9 10 10 10 10 10 9 10 9 8 7 7 7 7 6 5 5 4 4
9 9 8 8 8 8 8 8 6 5 6 9 5 4 8 9 16 19 17 7 18 12 10 9 9 10 9 9 9 9 9 8 9 8 7 7 7 6 6 5 5 4 4
10 4 8 8 8 9 8 7 7 8 8 7 4 3 5 5 12 15 17 10 11 12 10 10 9 9 9 9 9 9 8 8 8 7 7 7 6 6 6 5 5 5 4
8 8 9 7 7 6 8 8 8 7 8 9 9 8 5 5 6 8 11 10 10 10 10 9 9 9 9 9 9 9 10 9 8 8 7 7 7 6 6 5 3 3 3
4 4 7 8 8 8 8 8 8 9 8 8 10 10 10 10 10 11 11 11 10 10 9 9 9 8 9 9 9 9 9 9 8 7 7 7 6 6 6 6 5 5 4
6 6 7 8 7 8 8 8 7 8 9 9 8 9 6 10 10 10 10 10 9 9 9 8 9 9 8 8 7 7 8 8 8 6 6 6 6 5 5 5 4 4 2
6 7 7 7 7 7 8 8 9 8 8 9 9 7 5 10 9 9 9 9 8 8 7 7 7 7 7 7 7 7 7 7 7 7 6 5 5 4 4 4 4 3 2
6 6 5 7 8 7 8 8 8 9 9 9 9 8 11 9 9 9 9 8 8 8 6 5 6 7 8 6 6 7 7 6 6 6 6 5 4 4 4 4 4 3 3
6 7 7 7 7 7 8 8 8 7 9 9 9 10 10 9 9 10 10 10 8 7 7 7 8 10 9 8 7 7 7 7 6 6 7 5 3 3 3 3 3 3 3
7 6 7 7 7 8 8 9 9 10 10 9 9 12 10 10 10 11 9 9 8 8 9 8 8 11 12 14 11 12 11 9 7 6 4 3 3 2 3 3 2 1 3
6 7 7 7 7 8 8 8 9 10 9 9 11 10 10 10 10 11 9 11 9 9 10 8 12 16 13 10 12 13 10 9 7 6 3 2 2 3 3 3 6 4 4
Wind_Direction
345 340 337 340 329 322 320 316 314 313 313 311 307 305 304 298 295 290 281 279 271 268 256 251 252 253 252 253 253 246 255 252 259 275 302 289 261 1 40 43 58 85 84
343 343 338 331 329 328 318 321 323 316 314 313 310 307 305 304 300 293 287 278 270 268 266 250 250 248 250 247 247 251 251 264 268 258 274 267 50 46 62 64 51 92 95
350 339 333 332 332 329 337 319 323 317 326 325 320 319 317 310 306 298 287 277 262 262 262 252 252 249 251 249 244 242 249 254 250 237 257 284 73 71 70 61 59 66 77
341 339 334 340 333 339 315 330 320 340 329 331 326 319 319 317 310 311 306 319 245 258 252 246 246 247 252 256 259 246 256 267 259 244 230 220 119 79 83 106 91 82 90
342 336 340 336 335 313 333 337 333 335 330 328 324 329 329 324 330 331 335 328 297 285 260 241 240 245 252 253 263 260 263 295 283 268 211 149 126 136 143 135 123 100 68
349 344 342 339 325 340 340 336 338 336 337 336 341 340 338 342 342 351 360 360 8 11 3 5 18 20 307 250 243 262 335 298 292 323 257 210 136 127 135 132 134 134 139
351 351 339 330 332 333 323 337 340 342 340 348 349 348 346 350 355 359 1 14 16 18 21 24 31 29 31 55 86 79 59 52 36 271 84 72 108 127 120 121 115 74 130
7 345 329 344 340 343 348 340 333 336 342 348 345 348 354 360 5 5 6 22 30 33 26 36 42 47 41 56 69 67 56 44 41 56 72 78 91 84 96 125 128 98 162
344 360 359 350 358 354 0 358 333 315 329 343 326 333 347 8 13 13 12 23 24 36 34 36 37 45 34 43 66 73 74 67 51 63 82 82 73 56 78 121 165 127 186
342 358 1 2 356 1 358 358 348 346 332 314 288 316 336 4 10 19 16 20 28 26 30 29 28 37 33 20 78 77 79 88 91 93 80 65 85 129 199 224 201 195 201
352 343 6 355 1 1 359 358 351 349 7 2 349 19 25 26 8 358 16 23 7 22 25 24 26 23 26 20 30 33 39 130 138 107 99 92 87 66 43 25 31 45 31
349 342 351 10 10 345 5 8 8 356 7 356 360 34 41 25 10 358 355 30 2 39 37 79 59 31 49 29 33 11 358 354 37 44 65 50 51 54 51 49 54 50 56
341 346 347 17 357 349 18 17 15 8 7 6 12 6 19 24 13 360 349 344 14 19 10 27 299 323 23 38 29 9 15 30 29 38 48 45 39 50 23 111 111 109 85
348 360 345 17 355 24 33 25 34 20 14 17 3 23 6 13 12 2 356 357 334 332 3 45 28 55 48 24 32 22 23 28 28 28 24 21 21 23 34 3 21 133 141
356 353 3 14 16 10 66 26 39 50 32 33 12 14 12 14 360 327 340 3 2 12 29 35 31 27 26 23 27 29 27 15 17 16 17 12 17 7 28 13 7 355 61
1 356 15 8 12 17 12 128 59 103 222 165 71 18 28 27 358 359 354 354 15 8 37 28 27 21 19 17 14 12 21 17 7 8 13 10 12 21 360 15 21 15 25
3 0 0 7 8 20 15 8 25 181 253 260 157 68 20 1 16 10 11 18 33 13 34 27 24 18 13 11 9 9 6 11 9 3 5 8 1 358 13 18 23 24 42
1 346 353 11 13 7 16 13 17 15 18 35 78 37 81 35 37 15 357 19 32 31 28 21 15 10 8 6 3 359 358 5 2 0 3 4 7 356 359 17 26 25 6
17 14 342 1 26 17 14 15 17 16 18 42 19 47 118 63 44 42 17 30 25 26 18 17 13 7 5 1 359 355 355 358 356 2 0 358 358 350 346 4 46 63 336
56 40 328 9 17 18 20 23 16 9 17 40 37 22 14 25 24 25 27 23 22 18 13 5 3 360 358 354 352 350 348 352 353 359 351 349 347 342 350 350 3 40 37
355 12 18 17 22 13 20 21 26 18 11 17 51 36 349 25 20 23 20 18 15 10 5 358 355 354 351 345 342 341 340 343 345 345 338 335 341 349 345 342 357 60 353
12 23 27 353 23 26 9 28 12 17 23 18 17 53 33 35 24 16 14 16 7 1 354 348 344 352 349 340 339 337 334 335 336 333 329 334 343 338 347 332 33 42 29
26 15 20 28 6 17 29 19 30 11 17 22 18 21 40 27 15 10 7 4 357 343 341 358 359 2 351 347 345 334 326 330 323 315 325 328 328 358 1 336 41 32 56
22 25 16 16 30 19 19 23 16 31 16 22 20 32 37 19 11 3 5 360 349 1 357 21 17 358 353 348 344 336 332 330 314 318 320 325 1 358 334 23 29 62 79
26 24 21 25 20 19 23 22 16 19 25 20 21 39 24 13 4 4 359 2 347 4 16 26 359 358 3 350 349 344 339 322 320 316 319 13 22 19 15 30 61 127 91
41 25 25 22 23 26 23 17 29 17 24 26 35 28 15 5 5 4 358 357 350 4 22 12 2 2 358 349 347 332 329 329 334 329 336 47 42 29 25 70 81 72 86